Regional Weather Roundup
Issued by NWS

Home | Current Version | Previous Version | Graphics & Text | Print | Product List | Glossary On
Versions: 1 2 3 4 5 6 7 8 9 10 11 12 13 14 15 16 17 18 19 20 21 22 23 24 25 26 27 28 29 30 31 32 33 34 35 36 37 38 39 40 41 42 43 44 45 46 47 48 49 50
000
ASUS43 KMKX 050100
RWRWI

WISCONSIN REGIONAL WEATHER ROUNDUP
NATIONAL WEATHER SERVICE MILWAUKEE/SULLIVAN WI
800 PM CDT WED MAY 04 2016

NOTE: "FAIR" INDICATES FEW OR NO CLOUDS BELOW 12,000 FEET WITH NO
SIGNIFICANT WEATHER AND/OR OBSTRUCTIONS TO VISIBILITY.

WIZ001-002-006>008-014>016-023>028-050200-
NORTHWEST WISCONSIN

CITY           SKY/WX    TMP DP  RH WIND       PRES   REMARKS
SUPERIOR ARPT  CLEAR     47  29  48 NE7       29.99R
ASHLAND        CLEAR     44  36  73 N7        30.00R
HAYWARD        CLEAR     53  26  35 NE3       29.97R
SIREN          CLEAR     61  17  18 NE8       29.95S
CUMBERLAND     CLEAR     55  18  22 N9        29.96R
RICE LAKE      CLEAR     59  17  19 N13       29.97R
CHETEK         CLEAR     57  24  27 N8        29.95R
LADYSMITH      CLEAR     53  24  32 N15       29.98R
EAU CLAIRE     NOT AVBL
MENOMONIE      NOT AVBL
NEW RICHMOND   CLEAR     61  19  19 N8        29.95R
OSCEOLA        CLEAR     62  20  19 N6        29.97S
$$

WIZ003>005-009-010-017-018-050200-
NORTH CENTRAL WISCONSIN

CITY           SKY/WX    TMP DP  RH WIND       PRES   REMARKS
MANITOWISH WTR CLEAR     46  31  56 NE7       29.97R
ARBOR VITAE    CLEAR     47  31  55 NE9       29.96S
WOODRUFF       CLEAR     47  31  55 NE9       29.96S
RHINELANDER    CLEAR     46  30  53 N8G18     29.96R
EAGLE RIVER    CLEAR     44  28  54 N10       29.95S
LAND O LAKES   CLEAR     44  31  60 N7        29.97R
PHILLIPS       CLEAR     48  31  50 N9        29.96S
TOMAHAWK       CLEAR     47  31  51 N5        29.96R
MEDFORD        CLEAR     49  31  49 N12G18    29.94R
MERRILL        CLEAR     49  32  51 NE15      29.95R
$$

WIZ029-030-035-036-043>047-050200-
CENTRAL WISCONSIN

CITY           SKY/WX    TMP DP  RH WIND       PRES   REMARKS
WAUSAU         CLEAR     51  31  46 VRB6      29.92R
MOSINEE        CLEAR     48  30  49 N13G18    29.94R
MARSHFIELD     CLEAR     52  30  43 N12G18    29.92R
STEVENS POINT  CLEAR     49  30  48 N12G17    29.93R
WAUPACA        CLOUDY    55  32  41 N12       29.90R
WAUTOMA        NOT AVBL
WISC RAPIDS    CLEAR     52  29  41 NE17G23   29.94R
CAMP DOUGLAS   NOT AVBL
$$

WIZ011>013-019>022-031-037>040-048>050-050200-
NORTHEAST WISCONSIN

CITY           SKY/WX    TMP DP  RH WIND       PRES   REMARKS
ANTIGO         CLEAR     44  32  62 N14       29.93R
SHAWANO        CLEAR     50  33  53 N15G21    29.92R
OCONTO         MOCLDY    46  33  61 N13G18    29.92R
STURGEON BAY   CLEAR     43  30  61 N17G25    29.94R
GREEN BAY      MOCLDY    47  34  60 N16       29.91R
MANITOWOC      NOT AVBL
APPLETON       PTCLDY    48  32  53 NE16      29.89R
CLINTONVILLE   PTCLDY    50  32  50 N15       29.90R
OSHKOSH        PTCLDY    49  35  58 N14       29.89R
$$

WIZ032>034-041-042-053>061-050200-
SOUTHWEST WISCONSIN

CITY           SKY/WX    TMP DP  RH WIND       PRES   REMARKS
LA CROSSE      CLEAR     59  25  27 N9        29.90R
SPARTA         CLEAR     58  20  23 N12G17    29.92R
VIROQUA        CLEAR     56  22  25 N14       29.90R
BOSCOBEL       CLEAR     60  20  21 VRB5      29.88R
PRAIRIE DU CHI CLEAR     61  22  22 N12G18    29.88R
PLATTEVILLE    CLEAR     59  28  31 N13       29.86R
$$

WIZ056-057-062-063-064-067-068-050200-
SOUTH CENTRAL WISCONSIN

CITY           SKY/WX    TMP DP  RH WIND       PRES   REMARKS
REEDSBURG      CLEAR     56  29  36 N17       29.88R
BARABOO/DELLS  PTCLDY    57  27  31 N8G20     29.87R
LONE ROCK      NOT AVBL
MINERAL POINT  CLEAR     59  21  23 N12G17    29.86R
MADISON        PTCLDY    52  34  50 NE16      29.87R
MIDDLETON      MOCLDY    58  31  35 NE13G18   29.86R
WATERTOWN      CLEAR     51  36  56 N12G20    29.85R
MONROE         PTCLDY    55  27  33 N12G24    29.83S
JANESVILLE     PTCLDY    55  34  44 NE15      29.84R
$$

WIZ051-052-058>065-066-070>072-050200-
SOUTHEAST WISCONSIN

CITY           SKY/WX    TMP DP  RH WIND       PRES   REMARKS
MILWAUKEE      MOCLDY    41  35  79 N14G24    29.87R
WAUKESHA       MOCLDY    43  36  75 NE7       29.87R
MILWAUKEE/TIMM MOCLDY    43  34  70 NE10      29.88R
RACINE         CLOUDY    42  34  73 N16       29.88R
BURLINGTON     PTCLDY    44  35  70 NE8       29.86R
KENOSHA        MOCLDY    43  34  70 NE12      29.87R
FOND DU LAC    PTCLDY    48  36  63 NE13      29.89R
SHEBOYGAN      CLOUDY    42  35  76 NE12      29.89R
WEST BEND      CLOUDY    45  36  70 NE5       29.87R
JUNEAU         MOCLDY    50  37  60 N10       29.88R
$$

LSZ147-162-050200-
LAKE SUPERIOR

STATION/POSITION TIME  TEMP    WIND        PRES    WAVE
                       AIR SEA DIR/SP/G            HT/PER
                 (UTC) (F)     (DEG/KT/KT) (MB)    (FT/S)
W MID LAKE BUOY  2350   39 37  250/  4/  6 1016.5S   1/ 4
DEVILS ISLAND    0000   44     130/  6/  7 1016.2R
SAXON HARBOR     0000   46      CALM  /  5 1015.6
$$

LMZ867-665-643>646-050200-
LAKE MICHIGAN

STATION/POSITION TIME  TEMP    WIND        PRES    WAVE
                       AIR SEA DIR/SP/G            HT/PER
                 (UTC) (F)     (DEG/KT/KT) (MB)    (FT/S)
CHAMBERS ISLAND  0000   44     340/ 15/ 20 1013.2R
N MID LAKE BUOY  2350   41 39  330/ 16/ 19 1011.8R   4/ 5
NORTHPORT PIER   0020   41     340/ 21/ 25 1012.9R
ALGOMA LAKESHORE 2315           20/ 16/ 22   N/A
KEWAUNEE LAKESHO 0000   46                 1011.2R
SHEBOYGAN LAKESH 0000   42      30/ 24/ 26 1012.0R
PORT WASHINGTON  0000   45      30/ 11/ 17 1012.5R
S MID LAKE BUOY  2350   42 40   20/ 25/ 29 1008.9R   9/ 8
KENOSHA   LAKESH 0000   43      20/ 22/ 25 1010.8R
$$

TC  - TEMPERATURE IN CELSIUS
VSB - VISIBILITY IN STATUTE MILES
WCI - WIND CHILL INDEX
HX  - HEAT INDEX




USA.gov is the U.S. government's official web portal to all federal, state and local government web resources and services.